Location: Hoyos del Collado
(40.3594°N, 5.2003°W)
Time: 13:57:35
(UTC+00:00)

Cosmos 2263 Rocket - Visible Passes

Search period start: 12 July 2024 00:00
Search period end: 22 July 2024 00:00
Orbit: 824 x 846 km, 71.0° (Epoch: 12 July)

Date Brightness Start Highest point End Pass type
(mag) Time Alt. Az. Time Alt. Az. Time Alt. Az.
12 Jul 5.5 03:53:57 10° NNE 03:57:02 15° NE 04:00:07 10° E visible
12 Jul 3.7 20:25:56 10° SW 20:31:09 42° WNW 20:36:25 10° N visible
13 Jul 5.6 03:37:12 10° NNE 03:39:57 14° NE 03:42:43 10° ENE visible
14 Jul 5.6 03:20:30 10° NNE 03:22:52 13° NE 03:25:15 10° ENE visible
15 Jul 5.6 03:03:53 10° NNE 03:05:47 12° NE 03:07:40 10° ENE visible
16 Jul 5.6 02:47:28 10° NNE 02:48:41 11° NE 02:49:55 10° ENE visible
16 Jul 2.8 04:28:09 10° NNW 04:33:44 64° ENE 04:39:19 10° SE visible
17 Jul 2.9 04:11:11 10° NNW 04:16:44 58° ENE 04:22:16 10° SE visible
17 Jul 5.8 20:49:52 10° WNW 20:51:07 11° NW 20:52:22 10° NNW visible
18 Jul 3.1 03:54:13 10° NNW 03:59:43 53° ENE 04:05:13 10° SE visible
18 Jul 5.7 20:32:07 10° WNW 20:34:01 12° NW 20:35:56 10° NNW visible
19 Jul 3.2 03:37:16 10° NNW 03:42:42 49° ENE 03:48:08 10° SE visible
19 Jul 5.5 20:14:33 10° WNW 20:16:56 13° NW 20:19:19 10° NNW visible
20 Jul 3.4 03:20:18 10° NNW 03:25:41 45° ENE 03:31:03 10° SE visible
21 Jul 3.5 03:03:21 10° N 03:08:39 41° ENE 03:13:57 10° SE visible
